FW4110 Weather Reports


time (UTC)temp
F
wind
direction
speed
knots
gust
knots
rain 1hr
in
rain 24hr
in
rain mn
in
humidity
%
barometer
mb
20260505011514 76 216 0.9 6.1 0.00 0.01 0.01 68 1004.8
20260505010012 77 335 0.9 5.2 0.00 0.01 0.01 67 1004.7
20260505004510 77 242 0.9 6.1 0.00 0.01 0.01 67 1004.6
20260505003007 79 200 1.7 7.0 0.00 0.01 0.01 65 1004.3
20260505001505 80 147 2.6 8.7 0.00 0.01 0.01 63 1004.3
20260505000006 80 273 0.9 8.7 0.00 0.01 0.01 63 1004.4
20260504234559 80 258 1.7 10.4 0.00 0.01 0.01 63 1004.3
20260504233108 81 249 2.6 11.3 0.00 0.01 0.01 62 1004.5
20260504231555 81 277 4.3 13.9 0.00 0.01 0.01 61 1004.6
20260504230052 82 216 4.3 14.8 0.00 0.01 0.01 62 1004.7
20260504224556 82 5 3.5 13.0 0.00 0.01 0.01 60 1004.6
20260504223100 83 187 3.5 12.2 0.00 0.01 0.01 59 1004.7
20260504221545 83 269 4.3 12.2 0.00 0.01 0.01 60 1004.9
20260504220043 83 332 2.6 8.7 0.00 0.01 0.01 60 1004.8
20260504214541 83 239 2.6 11.3 0.00 0.01 0.01 60 1004.8
20260504213050 83 231 7.0 13.0 0.00 0.01 0.01 59 1004.8
20260504211535 83 150 4.3 13.0 0.00 0.01 0.01 60 1004.6
20260504210029 82 302 2.6 9.6 0.00 0.01 0.01 63 1004.7
20260504204536 81 151 5.2 13.0 0.00 0.01 0.01 63 1005.0
20260504203023 80 258 3.5 12.2 0.00 0.01 0.01 67 1005.2
20260504201514 78 275 5.2 13.0 0.01 0.01 0.01 69 1005.3
20260504200010 76 227 2.6 7.8 0.01 0.01 0.01 75 1005.3
20260504194507 72 246 1.7 7.0 0.01 0.01 0.01 81 1005.8
20260504193002 70 135 5.2 7.8 0.01 0.01 0.01 80 1005.8
20260504191603 71 284 0.9 3.5 0.00 0.00 0.00 80 1006.9
20260504190057 71 169 0.0 0.9 0.00 0.00 0.00 84 1006.8
20260504184558 73 296 0.0 0.9 0.00 0.00 0.00 78 1007.0
20260504183054 75 296 0.0 0.0 0.00 0.00 0.00 72 1006.9
20260504181554 76 299 0.0 2.6 0.00 0.00 0.00 68 1007.0
20260504180148 76 301 0.9 4.3 0.00 0.00 0.00 66 1006.9
20260504174548 76 183 2.6 6.1 0.00 0.00 0.00 65 1007.0
20260504173043 77 282 2.6 8.7 0.00 0.00 0.00 64 1007.2
20260504171542 76 133 3.5 10.4 0.00 0.00 0.00 67 1007.2
20260504081530 66 270 0.9 3.5 0.00 0.00 0.00 74 1009.6
20260504044602 67 244 0.9 9.6 0.00 0.00 0.00 73 1010.8
20260504043054 67 308 2.6 9.6 0.00 0.00 0.00 72 1011.1
20260504041547 67 134 1.7 7.0 0.00 0.00 0.00 72 1011.2
20260504040103 68 148 1.7 7.0 0.00 0.00 0.00 71 1011.3
20260504034606 68 89 0.0 7.8 0.00 0.00 0.00 71 1011.2
20260504033039 68 169 2.6 6.1 0.00 0.00 0.00 71 1012.1
20260504031537 68 198 1.7 6.1 0.00 0.00 0.00 70 1012.3
20260504030039 68 196 1.7 6.1 0.00 0.00 0.00 70 1012.0
20260504024533 68 178 1.7 5.2 0.00 0.00 0.00 70 1011.8
20260504023031 68 155 0.0 4.3 0.00 0.00 0.00 70 1011.6
20260504021529 69 168 0.9 4.3 0.00 0.00 0.00 69 1011.6
20260504020029 69 153 0.9 3.5 0.00 0.00 0.00 68 1011.4
20260504014525 70 175 0.0 3.5 0.00 0.00 0.00 67 1011.4
20260504013030 71 297 0.0 3.5 0.00 0.00 0.00 66 1011.2